Skip Page Navigation
NASA JPL Caltech
NASA Logo - Jet Propulsion Laboratory + View the NASA Portal
+ Center for Near-Earth Object Studies
JPL Home Earth Solar System Stars & Galaxies Technology
JPL Solar System Dynamics
BODIES ORBITS EPHEMERIDES TOOLS PHYSICAL DATA DISCOVERY FAQ SITE MAP
JPL Small-Body Database Browser
Search: [ help ]  
26561 (2000 EV37)
Classification: Outer Main-belt Asteroid          SPK-ID: 2026561
Ephemeris | Orbit Diagram | Orbital Elements | Mission Design | Physical Parameters | Discovery Circumstances | Close-Approach Data ]

[ show orbit diagram ]
Orbital Elements at Epoch 2459000.5 (2020-May-31.0) TDB
Reference: JPL 25 (heliocentric ecliptic J2000)
 Element Value Uncertainty (1-sigma)   Units 
e .1594247598474827 3.7693e-08  
a 3.391828803160907 2.3332e-08 au
q 2.851087310773205 1.2871e-07 au
i 8.584542007143952 4.1863e-06 deg
node 174.4069309811253 2.5926e-05 deg
peri 219.5477779849544 2.8806e-05 deg
M 219.5365260930159 1.5062e-05 deg
tp 2459890.746381185668
(2022-Nov-07.24638119)
0.00010014 TDB
period 2281.651509196407
6.25
2.3543e-05
6.446e-08
d
yr
n .1577804491829654 1.6281e-09 deg/d
Q 3.93257029554861 2.7052e-08 au
  Orbit Determination Parameters
   # obs. used (total)      1585  
   data-arc span      15264 days (41.79 yr)  
   first obs. used      1978-09-03  
   last obs. used      2020-06-18  
   planetary ephem.      DE431  
   SB-pert. ephem.      SB431-N16  
   condition code      0  
   norm. resid. RMS      .48272  
   source      ORB  
   producer      Otto Matic  
   solution date      2020-Jun-23 19:28:22  

Additional Information
 Earth MOID = 1.86336 au 
 Jupiter MOID = 1.54976 au 
 T_jup = 3.110 
[ show covariance matrix ]

Ephemeris | Orbit Diagram | Orbital Elements | Mission Design | Physical Parameters | Discovery Circumstances | Close-Approach Data ]

Physical Parameter Table
Parameter Symbol Value Units Sigma Reference Notes
absolute magnitude H 13.0   n/a MPO313627  

26561 (2000 EV37)          Discovered 2000-Mar-08 by LINEAR at Socorro
Reference: 20010705/Numbers.arcLast Updated: 2004-04-19

[ hide close-approach data ]
Close-Approach Data   ...sorted by Date/Time (TDB)
Date/Time (TDB) Time Uncertainty
(days_HH:MM)
Body Nominal Distance (au) Minimum Distance (au) Maximum Distance (au) V-relative (km/s) V-infinity (km/s) JD (TDB) Time Uncertainty (minutes) Semi-major axis (km) Semi-minor axis (km) range-LOV angle (deg) N-sigma BP Orbit Ref. Reference Modified
1943-Jul-29 11:12 00:04 Jupiter 1.89673804087787 1.89673650663566 1.89673957511975 2.85819082751494 2.69742818328702 2430934.966955973 3.6791860291159 77.9349493470052 21.7952110875881 52.7132021849596 1478366.16331564 T 25 CATAB v2.0f-lin.ifort 2020-Jun-23 19:28:40 2020-Jun-23 19:28
1956-Sep-15 06:59 00:03 Jupiter 1.63562449310966 1.63562318587668 1.63562580034467 2.38560513432198 2.15763627220245 2435731.790994185 2.80484006627174 131.966184995292 28.8103705621877 70.4766465129165 2253804.00863877 T 25 CATAB v2.0f-lin.ifort 2020-Jun-23 19:28:40 2020-Jun-23 19:28
1969-Sep-11 16:27 00:02 Jupiter 1.47078859760845 1.47078810541545 1.47078908980245 2.18282285711065 1.90076877387503 2440476.185330916 1.89804827865994 165.047400745369 32.6443041221757 89.2010307740411 1924468.20542386 T 25 CATAB v2.0f-lin.ifort 2020-Jun-23 19:28:40 2020-Jun-23 19:28
1982-Sep-02 20:37 00:01 Jupiter 1.51526498119497 1.51526440756165 1.51526555482932 1.78620331872597 1.43963061173177 2445215.358747044 1.36042107435164 131.428066184265 85.3040240517907 72.6868714057568 1985778.30870364 T 25 CATAB v2.0f-lin.ifort 2020-Jun-23 19:28:40 2020-Jun-23 19:28
1995-Nov-01 22:43 < 00:01 Jupiter 1.70417642627465 1.70417581383047 1.70417703871854 1.71405836000723 1.39425288241517 2450023.446209534 0.870890919168725 53.6945734824428 43.0472739794791 -40.34858759896 1940455.80816945 T 25 CATAB v2.0f-lin.ifort 2020-Jun-23 19:28:40 2020-Jun-23 19:28
2009-Jan-19 04:51 < 00:01 Jupiter 1.86644077940138 1.86644029479654 1.86644126400611 3.3804145831764 3.24338847447324 2454850.701868735 0.313423593307523 43.337366059129 18.903007698375 -82.945002165516 3039226.44822002 T 25 CATAB v2.0f-lin.ifort 2020-Jun-23 19:28:40 2020-Jun-23 19:28
2022-Mar-02 20:28 < 00:01 Jupiter 1.98369250219955 1.98369209399976 1.98369291039933 4.97249374259323 4.88586822574567 2459641.352874769 0.346079311945731 39.6332415953958 18.852733017359 -87.4779380057479 4372626.63770714 T 25 CATAB v2.0f-lin.ifort 2020-Jun-23 19:28:40 2020-Jun-23 19:28
2074-Jul-31 04:19 00:02 Jupiter 1.84118315899408 1.84118233538171 1.84118398260708 2.86275245301081 2.69727021148481 2478784.679721382 2.02382350128923 82.8675668965814 19.1502017571798 69.5652368461336 3184707.28702748 T 25 CATAB v2.0f-lin.ifort 2020-Jun-23 19:28:40 2020-Jun-23 19:28
2087-Aug-28 03:37 00:02 Jupiter 1.58634052736501 1.58633971198626 1.58634134274737 2.4089352952875 2.17602258972685 2483560.650477519 2.39460292910245 162.27966236126 23.3207938502217 81.1429437028176 2375955.7801754 T 25 CATAB v2.0f-lin.ifort 2020-Jun-23 19:28:40 2020-Jun-23 19:28
2100-Aug-19 20:16 00:03 Jupiter 1.47313137099265 1.47313095043672 1.47313179154841 1.99190959754411 1.67861308514263 2488300.344126143 2.96967802229736 238.883988939554 56.0173181425894 -82.3341334127758 1614871.31238505 T 25 CATAB v2.0f-lin.ifort 2020-Jun-23 19:28:40 2020-Jun-23 19:28
2113-Sep-05 13:41 00:04 Jupiter 1.5550156044243 1.55501459504842 1.55501661380327 1.38587293394182 0.911721829544563 2493065.069804003 4.22585889109271 459.663163528287 173.956617675744 15.6149603151866 1653656.69173149 T 25 CATAB v2.0f-lin.ifort 2020-Jun-23 19:28:40 2020-Jun-23 19:28
2126-Nov-25 23:22 00:05 Jupiter 1.71708444514847 1.71708329839772 1.71708559189688 2.07166368136051 1.81802314639625 2497894.473709124 5.19150059227733 162.642392985571 37.5494741543255 -39.1650696460176 812936.54715192 T 25 CATAB v2.0f-lin.ifort 2020-Jun-23 19:28:40 2020-Jun-23 19:28
2140-Jan-30 05:55 00:05 Jupiter 1.86209607087748 1.86209499179051 1.86209714998054 3.93014645275106 3.8126499260435 2502707.746666247 5.29962680799973 308.688253785264 17.721085725676 84.4928176094458 2889062.81744112 T 25 CATAB v2.0f-lin.ifort 2020-Jun-23 19:28:40 2020-Jun-23 19:28

Alternate Designations
 2000 EV37 = 1978 RC3 = 1997 UQ21 
Ephemeris | Orbit Diagram | Orbital Elements | Mission Design | Physical Parameters | Discovery Circumstances | Close-Approach Data ]
ABOUT SSD CREDITS/AWARDS PRIVACY/COPYRIGHT GLOSSARY LINKS
FirstGov 2020-Oct-24 05:14 UT
(server date/time)  
NASA Home Page
Site Manager:   Ryan S. Park
Webmaster  Alan B. Chamberlin